TimeEST,TemperatureF,Dew PointF,Humidity,Sea Level PressureIn,VisibilityMPH,Wind Direction,Wind SpeedMPH,Gust SpeedMPH,PrecipitationIn,Events,Conditions,WindDirDegrees,DateUTC
12:35 AM,48.2,46.4,93,30.02,0.2,SSE,4.6,-,N/A,,Overcast,160,2013-01-14 05:35:00
12:55 AM,48.2,46.4,93,30.02,0.5,SSE,5.8,-,N/A,,Overcast,160,2013-01-14 05:55:00
1:15 AM,48.2,46.4,93,30.02,0.2,SSE,6.9,-,N/A,,Overcast,160,2013-01-14 06:15:00
1:35 AM,50.0,48.2,94,30.02,0.5,South,5.8,-,N/A,,Overcast,170,2013-01-14 06:35:00
1:55 AM,51.8,48.2,88,30.02,4.0,South,8.1,-,N/A,,Scattered Clouds,180,2013-01-14 06:55:00
2:15 AM,53.6,51.8,94,30.03,7.0,South,8.1,-,N/A,,Clear,190,2013-01-14 07:15:00
2:35 AM,55.4,53.6,94,30.02,10.0,South,9.2,-,N/A,,Clear,190,2013-01-14 07:35:00
2:55 AM,55.4,53.6,94,30.02,10.0,SSW,9.2,-,N/A,,Clear,200,2013-01-14 07:55:00
3:15 AM,55.4,53.6,94,30.02,10.0,SSW,10.4,-,N/A,,Clear,200,2013-01-14 08:15:00
3:35 AM,55.4,53.6,94,30.01,10.0,South,9.2,-,N/A,,Clear,190,2013-01-14 08:35:00
3:55 AM,55.4,53.6,94,30.01,10.0,SSW,9.2,-,N/A,,Clear,200,2013-01-14 08:55:00
4:15 AM,55.4,53.6,94,30.00,10.0,South,8.1,-,N/A,,Clear,190,2013-01-14 09:15:00
4:35 AM,55.4,53.6,94,29.99,10.0,South,8.1,-,N/A,,Clear,190,2013-01-14 09:35:00
5:15 AM,55.4,53.6,94,29.99,10.0,SSW,6.9,-,N/A,,Clear,200,2013-01-14 10:15:00
5:35 AM,55.4,53.6,94,29.98,10.0,South,6.9,-,N/A,,Clear,190,2013-01-14 10:35:00
5:55 AM,55.4,53.6,94,29.99,10.0,South,6.9,-,N/A,,Clear,190,2013-01-14 10:55:00
6:15 AM,55.4,53.6,94,29.99,10.0,South,5.8,-,N/A,,Mostly Cloudy,190,2013-01-14 11:15:00
6:35 AM,55.4,53.6,94,30.01,10.0,SSW,8.1,-,N/A,,Overcast,210,2013-01-14 11:35:00
6:55 AM,55.4,53.6,94,30.02,10.0,SW,9.2,-,N/A,,Scattered Clouds,220,2013-01-14 11:55:00
7:15 AM,57.2,53.6,88,29.99,10.0,South,9.2,-,0.01,,Clear,190,2013-01-14 12:15:00
7:35 AM,57.2,55.4,94,30.04,10.0,SW,9.2,-,0.01,,Scattered Clouds,230,2013-01-14 12:35:00
7:55 AM,57.2,55.4,94,30.05,10.0,WSW,9.2,-,0.01,,Clear,240,2013-01-14 12:55:00
8:15 AM,57.2,53.6,88,30.04,10.0,SW,8.1,-,N/A,,Clear,230,2013-01-14 13:15:00
8:35 AM,57.2,55.4,94,30.06,10.0,WSW,6.9,-,N/A,,Mostly Cloudy,250,2013-01-14 13:35:00
8:55 AM,57.2,55.4,94,30.06,10.0,WSW,6.9,-,N/A,,Mostly Cloudy,240,2013-01-14 13:55:00
9:15 AM,57.2,55.4,94,30.07,10.0,SW,5.8,-,N/A,,Partly Cloudy,230,2013-01-14 14:15:00
9:35 AM,59.0,55.4,88,30.08,10.0,West,6.9,-,N/A,,Partly Cloudy,280,2013-01-14 14:35:00
9:55 AM,59.0,55.4,88,30.10,10.0,WNW,6.9,-,N/A,,Clear,290,2013-01-14 14:55:00
10:15 AM,57.2,55.4,94,30.09,10.0,WNW,5.8,-,N/A,,Clear,290,2013-01-14 15:15:00
10:35 AM,57.2,55.4,94,30.10,10.0,WNW,6.9,-,N/A,,Clear,290,2013-01-14 15:35:00
10:55 AM,59.0,55.4,88,30.10,10.0,WNW,9.2,-,N/A,,Scattered Clouds,300,2013-01-14 15:55:00
11:15 AM,55.4,51.8,88,30.09,4.0,NW,8.1,-,N/A,,Overcast,320,2013-01-14 16:15:00
11:35 AM,55.4,53.6,94,30.10,5.0,WNW,8.1,-,N/A,,Overcast,300,2013-01-14 16:35:00
11:55 AM,53.6,50.0,88,30.10,5.0,WNW,9.2,-,N/A,,Overcast,300,2013-01-14 16:55:00
12:15 PM,53.6,50.0,88,30.10,4.0,WNW,6.9,-,N/A,,Overcast,300,2013-01-14 17:15:00
12:35 PM,53.6,50.0,88,30.10,4.0,WNW,6.9,-,N/A,,Overcast,300,2013-01-14 17:35:00
1:15 PM,53.6,50.0,88,30.10,5.0,NNW,6.9,-,N/A,,Scattered Clouds,330,2013-01-14 18:15:00
1:35 PM,53.6,50.0,88,30.11,5.0,NW,8.1,-,N/A,,Scattered Clouds,310,2013-01-14 18:35:00
1:55 PM,53.6,50.0,88,30.11,8.0,NW,8.1,17.3,N/A,,Mostly Cloudy,320,2013-01-14 18:55:00
2:15 PM,53.6,50.0,88,30.12,10.0,NW,8.1,-,N/A,,Mostly Cloudy,310,2013-01-14 19:15:00
2:35 PM,53.6,50.0,88,30.15,10.0,WNW,6.9,-,N/A,,Partly Cloudy,300,2013-01-14 19:35:00
2:55 PM,53.6,48.2,82,30.13,10.0,North,3.5,-,N/A,,Scattered Clouds,350,2013-01-14 19:55:00
3:15 PM,53.6,48.2,82,30.11,7.0,Calm,Calm,-,N/A,,Mostly Cloudy,0,2013-01-14 20:15:00
3:35 PM,53.6,48.2,82,30.14,7.0,West,3.5,-,N/A,,Scattered Clouds,280,2013-01-14 20:35:00
3:55 PM,51.8,48.2,88,30.15,7.0,NNW,4.6,-,N/A,,Mostly Cloudy,330,2013-01-14 20:55:00
4:15 PM,51.8,46.4,82,30.16,10.0,NNW,4.6,-,N/A,,Overcast,330,2013-01-14 21:15:00
4:35 PM,51.8,46.4,82,30.16,10.0,Calm,Calm,-,N/A,,Overcast,0,2013-01-14 21:35:00
4:55 PM,51.8,46.4,82,30.17,10.0,West,5.8,-,N/A,,Overcast,280,2013-01-14 21:55:00
5:15 PM,50.0,44.6,82,30.18,10.0,WNW,5.8,-,N/A,,Overcast,300,2013-01-14 22:15:00
5:35 PM,50.0,42.8,76,30.18,10.0,NNW,5.8,-,N/A,,Overcast,330,2013-01-14 22:35:00
5:55 PM,50.0,42.8,76,30.16,10.0,Calm,Calm,-,N/A,,Overcast,0,2013-01-14 22:55:00
6:15 PM,48.2,44.6,87,30.17,10.0,NW,4.6,-,N/A,,Overcast,310,2013-01-14 23:15:00
6:35 PM,48.2,42.8,82,30.18,10.0,NW,6.9,-,N/A,,Overcast,310,2013-01-14 23:35:00
6:55 PM,48.2,42.8,82,30.18,10.0,Calm,Calm,-,N/A,,Overcast,0,2013-01-14 23:55:00
7:15 PM,48.2,42.8,82,30.19,10.0,WNW,5.8,-,N/A,,Overcast,300,2013-01-15 00:15:00
7:35 PM,48.2,41.0,76,30.21,10.0,WNW,8.1,-,N/A,,Overcast,300,2013-01-15 00:35:00
7:55 PM,46.4,41.0,81,30.21,10.0,NW,6.9,-,0.02,,Overcast,310,2013-01-15 00:55:00
8:15 PM,46.4,42.8,87,30.23,10.0,NW,6.9,-,0.02,,Overcast,320,2013-01-15 01:15:00
8:35 PM,46.4,42.8,87,30.22,10.0,NW,4.6,-,0.04,,Overcast,320,2013-01-15 01:35:00
8:55 PM,46.4,42.8,87,30.22,10.0,NNW,4.6,-,0.05,,Overcast,330,2013-01-15 01:55:00
9:15 PM,46.4,42.8,87,30.22,9.0,NW,4.6,-,N/A,,Overcast,320,2013-01-15 02:15:00
9:35 PM,46.4,41.0,81,30.23,7.0,NNW,9.2,-,N/A,,Overcast,340,2013-01-15 02:35:00
9:55 PM,46.4,41.0,81,30.22,10.0,North,8.1,-,N/A,,Overcast,350,2013-01-15 02:55:00
10:15 PM,46.4,42.8,87,30.22,10.0,North,6.9,-,0.01,,Overcast,350,2013-01-15 03:15:00
10:35 PM,46.4,42.8,87,30.21,10.0,NNW,6.9,-,0.01,,Overcast,340,2013-01-15 03:35:00
10:55 PM,46.4,42.8,87,30.22,10.0,North,8.1,-,0.01,,Overcast,360,2013-01-15 03:55:00
11:15 PM,46.4,42.8,87,30.22,9.0,North,8.1,-,0.01,,Overcast,360,2013-01-15 04:15:00
11:35 PM,46.4,42.8,87,30.23,10.0,North,11.5,-,0.02,,Overcast,10,2013-01-15 04:35:00
11:55 PM,46.4,42.8,87,30.24,10.0,North,10.4,-,0.04,,Overcast,360,2013-01-15 04:55:00